Tracking 19709 objects as of 18-Jun-2019
HD Live streaming from Space Station
objects crossing your sky now

TSIKADA

Track TSIKADA now!
10-day predictions
TSIKADA is classified as:


NORAD ID: 23463
Int'l Code: 1995-002A
Perigee: 968.3 km
Apogee: 1,027.2 km
Inclination: 82.9 °
Period: 104.9 minutes
Semi major axis: 7368 km
RCS: 1.4564 m2 (large)
Launch date: January 24, 1995
Source: Commonwealth of Independent States (former USSR) (CIS)
Launch site: PLESETSK MISSILE AND SPACE COMPLEX (PKMTR)
aabbcc
Your satellite tracking list
Your tracking list is empty




NASA's NSSDC Master Catalog

Two Line Element Set (TLE):
1 23463U 95002A   19168.24597942  .00000013  00000-0 -24177-5 0  9992
2 23463  82.9273 106.4188 0039932  42.1664  68.7242 13.72497168221965
Source of the keplerian elements: AFSPC